OE2WNL Weather Reports


time (UTC)temp
F
wind
direction
speed
knots
gust
knots
rain 1hr
in
rain 24hr
in
rain mn
in
humidity
%
barometer
mb
20260906075216 63 114 0.9 3.5 0.00 0.00 0.00 74 1026.1
20260906074706 63 191 1.7 3.5 0.00 0.00 0.00 75 1026.1
20260906074206 63 291 1.7 1.7 0.00 0.00 0.00 75 1026.2
20260906073656 63 158 2.6 2.6 0.00 0.00 0.00 77 1026.0
20260906073156 62 163 1.7 4.3 0.00 0.00 0.00 80 1026.2
20260906072656 62 181 1.7 3.5 0.00 0.00 0.00 80 1026.6
20260906072156 61 141 0.9 3.5 0.00 0.00 0.00 81 1026.3
20260906071647 61 122 1.7 4.3 0.00 0.00 0.00 82 1026.4
20260906071146 61 156 1.7 4.3 0.00 0.00 0.00 81 1026.4
20260906070646 60 161 3.5 3.5 0.00 0.00 0.00 84 1026.5
20260906070146 61 175 3.5 5.2 0.00 0.00 0.00 84 1026.6
20260906065646 60 171 5.2 6.1 0.00 0.00 0.00 85 1026.6
20260906065146 60 179 4.3 6.1 0.00 0.00 0.00 86 1026.7
20260906064637 60 145 3.5 5.2 0.00 0.00 0.00 86 1026.7
20260906064127 59 155 3.5 5.2 0.00 0.00 0.00 88 1026.9
20260906063617 59 177 4.3 5.2 0.00 0.00 0.00 87 1026.6
20260906063117 60 172 2.6 3.5 0.00 0.00 0.00 85 1026.7
20260906062608 59 142 1.7 2.6 0.00 0.00 0.00 87 1026.9
20260906062107 59 174 2.6 4.3 0.00 0.00 0.00 87 1026.5
20260906061608 59 175 1.7 2.6 0.00 0.00 0.00 86 1026.2
20260906061058 59 145 2.6 3.5 0.00 0.00 0.00 87 1026.5
20260906060557 58 159 1.7 2.6 0.00 0.00 0.00 88 1026.4
20260906060057 58 167 2.6 2.6 0.00 0.00 0.00 87 1026.4
20260906055557 58 160 1.7 2.6 0.00 0.00 0.00 87 1026.6
20260906055057 58 156 1.7 1.7 0.00 0.00 0.00 89 1026.3
20260906054547 57 135 0.9 1.7 0.00 0.00 0.00 90 1026.6
20260906054047 56 63 0.0 0.9 0.00 0.00 0.00 92 1026.6
20260906053547 55 143 0.0 0.9 0.00 0.00 0.00 93 1026.7
20260906053047 55 218 2.6 2.6 0.00 0.00 0.00 95 1026.4
20260906052547 55 246 0.0 0.0 0.00 0.00 0.00 95 1026.5
20260906052037 55 119 0.0 0.0 0.00 0.00 0.00 96 1026.4
20260906051537 55 273 0.0 1.7 0.00 0.00 0.00 95 1026.2
20260906051027 55 212 0.0 1.7 0.00 0.00 0.00 94 1026.2
20260906050517 55 227 0.0 0.9 0.00 0.00 0.00 94 1026.2
20260906050017 55 201 0.0 1.7 0.00 0.00 0.00 95 1026.2
20260906045517 55 123 0.9 1.7 0.00 0.00 0.00 95 1026.1
20260906045007 55 96 0.9 1.7 0.00 0.00 0.00 95 1026.0
20260906044458 55 164 0.0 1.7 0.00 0.00 0.00 95 1026.2
20260906043948 55 110 1.7 1.7 0.00 0.00 0.00 95 1026.1
20260906043448 55 110 2.6 2.6 0.00 0.00 0.00 95 1026.2
20260906042948 55 83 1.7 2.6 0.00 0.00 0.00 95 1025.8
20260906042448 55 95 1.7 1.7 0.00 0.00 0.00 96 1026.1
20260906041948 55 125 1.7 1.7 0.00 0.00 0.00 96 1026.1
20260906041448 55 150 0.9 1.7 0.00 0.00 0.00 95 1026.1
20260906040948 55 233 0.0 1.7 0.00 0.00 0.00 95 1026.1
20260906040448 55 127 0.9 1.7 0.00 0.00 0.00 95 1025.7
20260906035947 55 137 0.9 1.7 0.00 0.00 0.00 95 1025.7
20260906035447 55 45 0.9 1.7 0.00 0.03 0.00 94 1025.6
20260906034947 56 266 0.9 2.6 0.00 0.03 0.00 92 1025.8
20260906034437 56 133 1.7 2.6 0.00 0.03 0.00 93 1025.7
20260906033927 56 93 1.7 1.7 0.00 0.03 0.00 94 1025.7
20260906033427 55 94 0.9 1.7 0.00 0.03 0.00 94 1025.7
20260906032917 55 66 1.7 1.7 0.00 0.03 0.00 95 1025.7
20260906032407 55 115 0.9 1.7 0.00 0.03 0.00 94 1026.0
20260906031907 55 50 1.7 2.6 0.00 0.03 0.00 94 1025.9
20260906031407 55 32 0.0 0.9 0.00 0.03 0.00 93 1025.9
20260906030907 56 246 2.6 2.6 0.00 0.03 0.00 93 1025.6
20260906030407 56 94 0.0 1.7 0.00 0.03 0.00 92 1025.6
20260906025857 56 121 1.7 2.6 0.00 0.03 0.00 92 1025.5
20260906025357 56 93 1.7 2.6 0.00 0.03 0.00 93 1025.3
20260906024857 56 136 1.7 3.5 0.00 0.03 0.00 92 1025.5
20260906024347 56 94 1.7 1.7 0.00 0.03 0.00 92 1025.5
20260906023847 56 49 2.6 2.6 0.00 0.03 0.00 92 1025.5
20260906023347 56 130 2.6 3.5 0.00 0.03 0.00 92 1025.6
20260906022847 57 137 3.5 4.3 0.00 0.03 0.00 92 1025.3
20260906022347 57 155 3.5 4.3 0.00 0.03 0.00 92 1025.6
20260906021847 57 134 0.9 1.7 0.00 0.03 0.00 91 1025.7
20260906021337 57 138 1.7 2.6 0.00 0.03 0.00 91 1025.4
20260906020837 57 147 1.7 3.5 0.00 0.03 0.00 92 1025.4
20260906020337 57 144 2.6 2.6 0.00 0.03 0.00 92 1025.3
20260906015827 57 146 0.0 1.7 0.00 0.04 0.00 92 1025.3
20260906015317 57 158 0.9 3.5 0.00 0.04 0.00 92 1024.9
20260906014807 57 171 1.7 1.7 0.00 0.04 0.00 92 1025.3
20260906014257 57 44 0.0 1.7 0.00 0.04 0.00 92 1025.0
20260906013757 57 152 0.9 2.6 0.00 0.04 0.00 91 1024.9
20260906013257 58 212 0.9 2.6 0.00 0.04 0.00 91 1025.0
20260906012757 58 126 0.9 1.7 0.00 0.04 0.00 91 1025.0
20260906012257 58 112 0.9 0.9 0.00 0.04 0.00 90 1024.9
20260906011757 58 205 0.0 0.0 0.00 0.04 0.00 91 1024.9
20260906011257 58 168 1.7 2.6 0.00 0.04 0.00 91 1024.8
20260906010747 58 205 0.0 0.9 0.00 0.04 0.00 91 1024.3
20260906010247 58 191 0.0 1.7 0.00 0.04 0.00 91 1024.5
20260906005747 58 141 0.0 1.7 0.00 0.04 0.00 91 1024.5
20260906005247 58 161 0.0 1.7 0.00 0.04 0.00 91 1024.5
20260906004737 57 136 0.0 1.7 0.00 0.04 0.00 91 1024.6
20260906004237 57 150 1.7 2.6 0.00 0.04 0.00 92 1024.6
20260906003737 57 80 0.0 1.7 0.00 0.04 0.00 91 1024.7
20260906003237 58 247 1.7 1.7 0.00 0.04 0.00 90 1024.4
20260906002727 58 174 0.9 1.7 0.00 0.04 0.00 90 1024.3
20260906002227 58 181 1.7 1.7 0.00 0.04 0.00 90 1024.5
20260906001717 58 141 0.0 1.7 0.00 0.04 0.00 90 1024.5
20260906001217 58 117 1.7 2.6 0.00 0.04 0.00 90 1024.3
20260906000717 58 103 1.7 1.7 0.00 0.04 0.00 91 1024.3
20260906000219 58 185 0.9 2.6 0.00 0.04 0.00 90 1024.4
20260905235707 58 160 0.9 0.9 0.00 0.04 0.00 90 1024.6
20260905235207 58 40 0.0 0.9 0.00 0.04 0.00 90 1024.6
20260905234657 58 124 0.9 1.7 0.00 0.04 0.00 91 1024.5
20260905234157 58 106 0.0 1.7 0.00 0.04 0.00 91 1024.5
20260905233647 58 170 0.0 1.7 0.00 0.04 0.00 91 1024.6
20260905233147 59 205 2.6 2.6 0.00 0.04 0.00 89 1024.7
20260905232647 59 168 0.0 1.7 0.00 0.04 0.00 88 1024.7
20260905232148 59 116 0.9 1.7 0.00 0.04 0.00 88 1024.6
20260905231647 58 54 0.9 1.7 0.00 0.04 0.00 89 1024.7
20260905231138 58 93 1.7 1.7 0.00 0.04 0.00 90 1024.7
20260905230637 58 65 2.6 3.5 0.00 0.04 0.00 90 1024.9
20260905230137 58 92 1.7 2.6 0.00 0.04 0.00 90 1024.9
20260905225637 58 147 0.0 0.9 0.00 0.04 0.00 90 1024.9
20260905225137 59 133 0.0 2.6 0.00 0.04 0.00 89 1024.6
20260905224627 59 176 3.5 4.3 0.00 0.04 0.00 89 1024.9
20260905224117 59 169 2.6 3.5 0.00 0.04 0.00 89 1024.8
20260905223617 59 81 0.9 2.6 0.00 0.04 0.00 89 1024.8
20260905223117 59 349 0.9 3.5 0.00 0.04 0.00 89 1024.9
20260905222617 59 324 0.0 0.9 0.00 0.04 0.00 89 1025.0
20260905222117 59 44 0.0 0.9 0.00 0.04 0.00 89 1025.3
20260905221607 59 246 0.9 2.6 0.00 0.04 0.00 88 1025.2
20260905221107 59 165 3.5 4.3 0.00 0.04 0.00 88 1024.9
20260905220607 59 137 2.6 3.5 0.00 0.04 0.00 88 1024.9
20260905220107 59 176 1.7 1.7 0.00 0.04 0.00 88 1025.2
20260905215607 59 66 0.9 1.7 0.00 0.04 0.04 88 1025.0
20260905215107 59 32 0.9 1.7 0.00 0.04 0.04 88 1025.1
20260905214557 59 115 0.9 1.7 0.00 0.04 0.04 88 1025.2
20260905214057 59 154 2.6 2.6 0.00 0.04 0.04 88 1025.1
20260905213557 59 221 1.7 1.7 0.00 0.04 0.04 88 1024.9
20260905213057 59 80 0.0 1.7 0.00 0.04 0.04 88 1025.1
20260905212557 60 166 1.7 2.6 0.00 0.04 0.04 88 1025.2
20260905212057 60 157 0.0 1.7 0.00 0.04 0.04 87 1025.1
20260905211557 60 212 0.0 0.9 0.00 0.04 0.04 87 1024.9
20260905211047 60 130 1.7 1.7 0.00 0.04 0.04 86 1025.0
20260905210537 60 76 0.9 1.7 0.00 0.04 0.04 86 1024.9
20260905210037 60 39 0.0 1.7 0.00 0.04 0.04 87 1024.8
20260905205537 60 271 0.9 1.7 0.00 0.04 0.04 87 1024.8
20260905205037 60 219 2.6 2.6 0.00 0.04 0.04 86 1024.8
20260905204527 60 187 1.7 2.6 0.00 0.04 0.04 86 1024.8
20260905204017 60 117 0.9 1.7 0.00 0.04 0.04 86 1024.7
20260905203507 60 162 1.7 1.7 0.00 0.04 0.04 86 1024.8
20260905203007 60 256 0.0 1.7 0.00 0.04 0.04 86 1025.1
20260905202507 60 109 1.7 1.7 0.00 0.04 0.04 86 1024.9
20260905202007 60 76 0.9 1.7 0.00 0.04 0.04 86 1024.9
20260905201457 60 166 1.7 3.5 0.00 0.04 0.04 85 1024.9
20260905200957 61 258 1.7 1.7 0.00 0.04 0.04 83 1024.8
20260905200457 61 172 1.7 3.5 0.00 0.04 0.04 83 1024.7
20260905195948 61 135 2.6 2.6 0.00 0.04 0.04 82 1024.7
20260905195438 61 245 1.7 1.7 0.00 0.04 0.04 83 1024.8
20260905194938 61 76 0.9 1.7 0.00 0.04 0.04 84 1024.8
20260905194437 61 164 0.0 2.6 0.00 0.04 0.04 83 1024.5
20260905193937 61 149 0.9 2.6 0.00 0.04 0.04 83 1024.4
20260905193437 62 180 0.0 0.9 0.00 0.04 0.04 81 1024.0
20260905192927 62 72 0.9 2.6 0.00 0.04 0.04 81 1024.0
20260905192427 61 297 0.0 1.7 0.00 0.04 0.04 81 1024.1
20260905191927 61 63 3.5 4.3 0.00 0.04 0.04 83 1024.2
20260905191427 61 220 0.0 2.6 0.00 0.04 0.04 84 1024.1
20260905190927 61 340 0.0 2.6 0.00 0.04 0.04 84 1024.3
20260905190427 61 3 1.7 2.6 0.00 0.04 0.04 84 1024.1
20260905185918 61 110 0.0 1.7 0.00 0.04 0.04 82 1023.8
20260905185408 61 332 1.7 2.6 0.00 0.04 0.04 83 1023.9
20260905184908 61 304 1.7 3.5 0.00 0.04 0.04 84 1023.6
20260905184407 61 3 0.9 2.6 0.00 0.04 0.04 84 1023.6
20260905183857 61 287 0.9 1.7 0.00 0.04 0.04 83 1023.7
20260905183357 61 44 0.0 0.9 0.00 0.04 0.04 83 1023.7
20260905182857 61 255 2.6 3.5 0.00 0.04 0.04 83 1023.5
20260905182357 61 252 2.6 2.6 0.00 0.04 0.04 82 1023.6
20260905181857 61 313 3.5 3.5 0.00 0.04 0.04 81 1023.7
20260905181347 62 333 0.9 3.5 0.00 0.04 0.04 80 1023.8
20260905180847 62 328 1.7 3.5 0.00 0.04 0.04 78 1023.3
20260905180347 62 10 2.6 3.5 0.00 0.04 0.04 77 1023.7
20260905175847 62 29 3.5 3.5 0.00 0.04 0.04 77 1023.5
20260905175337 62 0 2.6 4.3 0.00 0.04 0.04 78 1023.4
20260905174837 62 0 3.5 4.3 0.00 0.04 0.04 79 1023.6
20260905174327 61 356 3.5 3.5 0.00 0.04 0.04 80 1023.6
20260905173827 62 276 3.5 3.5 0.00 0.04 0.04 80 1023.5
20260905173327 62 55 0.9 5.2 0.00 0.04 0.04 78 1023.4
20260905172827 63 327 2.6 3.5 0.00 0.04 0.04 75 1023.4
20260905172327 64 311 1.7 3.5 0.00 0.04 0.04 72 1023.1
20260905171827 64 19 1.7 3.5 0.00 0.04 0.04 70 1023.4
20260905171327 65 26 0.9 4.3 0.00 0.04 0.04 70 1023.2
20260905170827 64 356 1.7 5.2 0.00 0.04 0.04 68 1023.2
20260905170327 64 335 1.7 4.3 0.00 0.04 0.04 71 1023.3
20260905165817 65 16 2.6 4.3 0.00 0.04 0.04 71 1023.3
20260905165317 65 338 2.6 5.2 0.00 0.04 0.04 71 1023.3
20260905164808 66 359 2.6 4.3 0.00 0.04 0.04 66 1023.0
20260905164307 65 296 2.6 4.3 0.00 0.04 0.04 72 1023.1
20260905163807 66 283 3.5 4.3 0.00 0.04 0.04 70 1023.0
20260905163257 66 300 2.6 5.2 0.00 0.04 0.04 67 1023.0
20260905162757 66 274 3.5 5.2 0.00 0.04 0.04 69 1023.0
20260905162247 65 279 3.5 5.2 0.00 0.04 0.04 72 1022.8
20260905161747 64 346 1.7 5.2 0.00 0.04 0.04 71 1023.0
20260905161247 66 306 3.5 6.1 0.00 0.04 0.04 66 1022.8
20260905160747 66 332 3.5 7.0 0.00 0.04 0.04 68 1022.6
20260905160247 67 358 3.5 5.2 0.00 0.04 0.04 66 1022.4
20260905155737 66 281 3.5 6.1 0.00 0.04 0.04 66 1022.6
20260905155237 66 265 5.2 7.0 0.00 0.04 0.04 66 1022.7
20260905154728 67 289 5.2 7.8 0.00 0.04 0.04 64 1022.5
20260905154228 66 287 5.2 7.0 0.00 0.04 0.04 66 1022.7
20260905153728 65 300 6.1 7.8 0.00 0.04 0.04 67 1022.8
20260905153228 65 300 5.2 10.4 0.00 0.04 0.04 66 1022.9
20260905152728 65 323 0.9 8.7 0.00 0.04 0.04 66 1022.7
20260905152228 63 294 4.3 7.8 0.00 0.04 0.04 72 1023.1
20260905151718 63 352 5.2 9.6 0.00 0.04 0.04 74 1023.2
20260905151218 62 10 3.5 8.7 0.00 0.04 0.04 77 1023.3
20260905150708 62 294 2.6 7.8 0.00 0.04 0.04 77 1023.1
20260905150207 62 326 2.6 6.1 0.00 0.04 0.04 78 1023.2
20260905145657 64 335 7.0 9.6 0.00 0.04 0.04 74 1022.8
20260905145157 64 356 4.3 5.2 0.00 0.04 0.04 70 1023.0
20260905144648 65 286 11.3 11.3 0.00 0.04 0.04 69 1023.0
20260905144148 65 299 3.5 10.4 0.00 0.04 0.04 69 1022.6
20260905143648 65 20 8.7 15.6 0.00 0.04 0.04 68 1022.4
20260905143148 64 344 9.6 16.5 0.00 0.04 0.04 71 1022.1
20260905142648 64 311 14.8 17.4 0.00 0.04 0.04 73 1022.5
20260905142148 64 335 4.3 10.4 0.00 0.04 0.04 73 1022.3
20260905141638 66 331 11.3 13.0 0.00 0.04 0.04 68 1022.1
20260905141138 67 271 7.0 15.6 0.00 0.04 0.04 65 1022.2
20260905140628 68 289 9.6 17.4 0.00 0.04 0.04 64 1021.8
20260905140127 67 301 6.1 14.8 0.00 0.04 0.04 65 1021.6
20260905135627 68 315 7.0 13.9 0.00 0.04 0.04 63 1021.4
20260905135117 69 342 8.7 15.6 0.00 0.04 0.04 62 1021.0
20260905134617 69 340 7.0 13.0 0.00 0.04 0.04 63 1021.1
20260905134107 69 352 7.0 15.6 0.00 0.04 0.04 61 1020.7
20260905133607 69 4 7.0 13.9 0.00 0.04 0.04 62 1020.6
20260905133057 70 354 13.0 13.9 0.00 0.04 0.04 60 1020.7
20260905132557 69 327 7.0 16.5 0.00 0.04 0.04 60 1020.5
20260905132057 71 0 7.8 16.5 0.00 0.04 0.04 58 1020.2
20260905131557 71 340 7.8 17.4 0.00 0.04 0.04 57 1020.4
20260905131057 71 333 7.8 13.0 0.00 0.04 0.04 56 1019.9
20260905130557 73 4 11.3 14.8 0.00 0.04 0.04 53 1019.8
20260905130057 74 39 4.3 12.2 0.00 0.04 0.04 51 1020.1
20260905125557 74 339 6.1 7.8 0.00 0.04 0.04 50 1019.7
20260905125057 74 345 7.8 8.7 0.00 0.04 0.04 50 1019.5
20260905124548 74 330 9.6 12.2 0.00 0.04 0.04 51 1019.7
20260905124048 73 284 9.6 12.2 0.00 0.04 0.04 52 1019.6
20260905123548 74 306 7.8 13.9 0.00 0.04 0.04 51 1019.8
20260905123038 73 304 4.3 8.7 0.00 0.04 0.04 51 1019.9
20260905122538 73 3 6.1 9.6 0.00 0.04 0.04 50 1019.8
20260905122038 73 348 5.2 9.6 0.00 0.04 0.04 51 1019.9
20260905121538 73 337 3.5 9.6 0.00 0.04 0.04 50 1020.0
20260905121038 74 332 1.7 9.6 0.00 0.04 0.04 49 1019.9
20260905120538 74 66 4.3 9.6 0.00 0.04 0.04 47 1019.7
20260905120037 74 1 6.1 8.7 0.00 0.04 0.04 49 1019.8
20260905115527 74 9 4.3 5.2 0.00 0.04 0.04 48 1020.1
20260905115027 74 39 7.0 11.3 0.00 0.04 0.04 47 1019.9
20260905114518 74 351 5.2 6.1 0.00 0.04 0.04 51 1020.0
20260905114008 73 291 3.5 5.2 0.00 0.04 0.04 55 1020.3
20260905113458 71 335 4.3 5.2 0.00 0.04 0.04 57 1020.3
20260905112958 71 275 5.2 7.8 0.00 0.04 0.04 57 1020.5
20260905112448 72 261 5.2 6.1 0.00 0.04 0.04 54 1020.3
20260905111948 71 353 1.7 4.3 0.00 0.04 0.04 61 1020.6
20260905111448 70 275 1.7 3.5 0.00 0.04 0.04 62 1020.8
20260905110948 69 228 1.7 2.6 0.00 0.04 0.04 60 1020.7
20260905110448 69 301 2.6 5.2 0.00 0.04 0.04 67 1021.0
20260905105947 67 348 0.0 5.2 0.00 0.04 0.04 69 1021.2
20260905105447 68 301 0.9 3.5 0.00 0.04 0.04 67 1021.0
20260905104947 67 32 0.9 2.6 0.00 0.04 0.04 68 1021.1
20260905104438 67 261 0.9 2.6 0.00 0.04 0.04 67 1021.0
20260905103938 67 320 3.5 3.5 0.00 0.04 0.04 68 1020.9
20260905103438 66 311 3.5 4.3 0.00 0.04 0.04 70 1021.1
20260905102928 66 202 1.7 4.3 0.00 0.04 0.04 70 1021.1
20260905102418 65 239 1.7 2.6 0.00 0.04 0.04 68 1021.3
20260905101918 65 123 2.6 3.5 0.00 0.04 0.04 70 1021.3
20260905101418 64 167 2.6 4.3 0.00 0.04 0.04 71 1021.6
20260905100918 64 152 3.5 4.3 0.00 0.04 0.04 74 1021.5
20260905100418 64 180 1.7 4.3 0.00 0.04 0.04 73 1021.4
20260905095917 62 91 0.9 2.6 0.00 0.04 0.04 75 1021.6
20260905095417 62 211 2.6 3.5 0.00 0.04 0.04 75 1021.8
20260905094917 62 148 0.9 2.6 0.00 0.04 0.04 74 1021.9
20260905094408 62 123 1.7 2.6 0.00 0.04 0.04 76 1021.9
20260905093908 62 156 0.0 1.7 0.00 0.04 0.04 77 1022.1
20260905093408 61 178 2.6 4.3 0.00 0.04 0.04 78 1021.9
20260905092858 60 187 0.0 1.7 0.00 0.04 0.04 81 1022.2
20260905092358 61 248 3.5 3.5 0.00 0.04 0.04 79 1022.0
20260905091848 61 239 0.9 2.6 0.00 0.04 0.04 79 1022.0
20260905091338 61 302 1.7 2.6 0.00 0.04 0.04 80 1021.8
20260905090838 61 89 0.0 5.2 0.00 0.04 0.04 80 1021.9
20260905090337 61 15 1.7 3.5 0.01 0.04 0.04 79 1021.9
20260905085837 61 315 1.7 3.5 0.01 0.04 0.04 80 1022.0
20260905085337 61 257 4.3 5.2 0.03 0.04 0.04 80 1021.6
20260905084837 61 311 2.6 7.8 0.03 0.04 0.04 80 1021.7
20260905084328 61 293 5.2 5.2 0.03 0.04 0.04 80 1021.7
20260905083828 60 295 5.2 6.1 0.03 0.04 0.04 82 1021.4
20260905083328 60 295 7.0 7.0 0.03 0.04 0.04 82 1021.6
20260905082828 61 285 7.0 8.7 0.03 0.04 0.04 80 1021.2
20260905082328 61 313 5.2 7.8 0.03 0.04 0.04 79 1021.1
20260905081818 61 289 7.8 12.2 0.03 0.04 0.04 79 1021.1
20260905081318 61 287 7.0 13.0 0.03 0.04 0.04 81 1021.0
20260905080808 61 291 10.4 12.2 0.03 0.04 0.04 80 1021.0
20260905080307 60 326 7.0 10.4 0.02 0.03 0.03 82 1021.0
20260905075807 61 275 7.8 11.3 0.02 0.03 0.03 82 1020.8